| time (UTC) | temp F | wind direction | speed MPH | gust MPH | rain 1hr in | rain 24hr in | rain mn in | humidity % | barometer mb |
| 20260507140016 | 49 | 299 | 3.0 | 9.0 | 0.00 | 0.44 | 0.33 | 96 | 1005.1 |
| 20260507134514 | 49 | 294 | 1.0 | 5.0 | 0.00 | 0.44 | 0.33 | 98 | 1005.3 |
| 20260507133014 | 49 | 325 | 2.0 | 5.0 | 0.01 | 0.44 | 0.33 | 98 | 1005.3 |
| 20260507131519 | 48 | 284 | 2.0 | 4.0 | 0.02 | 0.44 | 0.33 | 98 | 1004.9 |
| 20260507130012 | 47 | 279 | 1.0 | 4.0 | 0.02 | 0.44 | 0.33 | 97 | 1005.3 |
| 20260507124512 | 46 | 280 | 2.0 | 5.0 | 0.03 | 0.44 | 0.33 | 97 | 1005.5 |
| 20260507123011 | 46 | 291 | 1.0 | 8.0 | 0.03 | 0.43 | 0.32 | 97 | 1005.4 |
| 20260507121509 | 48 | 360 | 3.0 | 8.0 | 0.02 | 0.42 | 0.31 | 98 | 1005.1 |
| 20260507120022 | 48 | 275 | 1.0 | 5.0 | 0.03 | 0.42 | 0.31 | 97 | 1005.0 |
| 20260507114505 | 48 | 288 | 3.0 | 9.0 | 0.03 | 0.41 | 0.30 | 97 | 1005.1 |
| 20260507113005 | 48 | 310 | 2.0 | 11.0 | 0.02 | 0.40 | 0.28 | 97 | 1005.7 |
| 20260507111501 | 48 | 304 | 2.0 | 10.0 | 0.03 | 0.40 | 0.28 | 98 | 1004.6 |
| 20260507110111 | 49 | 298 | 2.0 | 9.0 | 0.03 | 0.39 | 0.28 | 98 | 1004.5 |
| 20260507104557 | 49 | 302 | 2.0 | 7.0 | 0.03 | 0.38 | 0.27 | 97 | 1004.6 |
| 20260507103055 | 49 | 287 | 2.0 | 9.0 | 0.05 | 0.38 | 0.27 | 98 | 1004.3 |
| 20260507101603 | 49 | 306 | 2.0 | 10.0 | 0.06 | 0.37 | 0.26 | 97 | 1004.0 |
| 20260507100051 | 50 | 340 | 2.0 | 6.0 | 0.06 | 0.36 | 0.25 | 97 | 1004.2 |
| 20260507094548 | 52 | 338 | 2.0 | 7.0 | 0.08 | 0.35 | 0.24 | 98 | 1003.6 |
| 20260507093053 | 52 | 273 | 3.0 | 10.0 | 0.17 | 0.33 | 0.22 | 98 | 1003.9 |
| 20260507091550 | 52 | 221 | 0.0 | 3.0 | 0.20 | 0.31 | 0.20 | 98 | 1003.3 |
| 20260507090045 | 51 | 222 | 1.0 | 3.0 | 0.19 | 0.30 | 0.19 | 98 | 1004.0 |
| 20260507084543 | 52 | 223 | 1.0 | 6.0 | 0.15 | 0.26 | 0.15 | 98 | 1004.1 |
| 20260507083042 | 52 | 223 | 1.0 | 6.0 | 0.05 | 0.16 | 0.05 | 98 | 1004.0 |
| 20260507081547 | 52 | 188 | 0.0 | 3.0 | 0.00 | 0.11 | 0.00 | 98 | 1002.9 |
| 20260507080039 | 52 | 188 | 0.0 | 3.0 | 0.00 | 0.11 | 0.00 | 98 | 1002.8 |
| 20260507074554 | 52 | 205 | 0.0 | 3.0 | 0.00 | 0.11 | 0.00 | 98 | 1002.9 |
| 20260507073037 | 52 | 205 | 1.0 | 3.0 | 0.00 | 0.11 | 0.00 | 98 | 1003.3 |
| 20260507071536 | 52 | 205 | 1.0 | 3.0 | 0.00 | 0.11 | 0.00 | 98 | 1003.2 |
| 20260507070035 | 52 | 207 | 1.0 | 3.0 | 0.00 | 0.11 | 0.00 | 98 | 1003.5 |
| 20260507064534 | 52 | 207 | 1.0 | 4.0 | 0.00 | 0.11 | 0.00 | 98 | 1003.3 |
| 20260507063034 | 52 | 210 | 2.0 | 5.0 | 0.00 | 0.11 | 0.00 | 98 | 1003.0 |
| 20260507061533 | 52 | 230 | 3.0 | 8.0 | 0.00 | 0.11 | 0.00 | 97 | 1003.6 |
| 20260507060030 | 52 | 204 | 2.0 | 8.0 | 0.00 | 0.11 | 0.00 | 97 | 1003.4 |
| 20260507054527 | 53 | 156 | 3.0 | 8.0 | 0.00 | 0.11 | 0.00 | 97 | 1003.8 |
| 20260507053026 | 53 | 188 | 4.0 | 10.0 | 0.00 | 0.11 | 0.00 | 97 | 1004.0 |
| 20260507051525 | 53 | 227 | 5.0 | 15.0 | 0.00 | 0.11 | 0.00 | 97 | 1004.1 |
| 20260507050026 | 53 | 199 | 3.0 | 11.0 | 0.00 | 0.11 | 0.00 | 97 | 1004.3 |
| 20260507044519 | 53 | 199 | 4.0 | 11.0 | 0.00 | 0.11 | 0.00 | 97 | 1004.2 |
| 20260507043018 | 53 | 219 | 4.0 | 13.0 | 0.00 | 0.11 | 0.00 | 97 | 1004.3 |
| 20260507041515 | 53 | 211 | 5.0 | 14.0 | 0.00 | 0.11 | 0.00 | 97 | 1004.5 |
| 20260507040013 | 54 | 213 | 4.0 | 14.0 | 0.00 | 0.11 | 0.11 | 97 | 1004.6 |
| 20260507034508 | 54 | 225 | 6.0 | 14.0 | 0.00 | 0.11 | 0.11 | 97 | 1004.7 |
| 20260507033016 | 55 | 205 | 4.0 | 10.0 | 0.00 | 0.11 | 0.11 | 97 | 1004.6 |
| 20260507031507 | 55 | 205 | 4.0 | 14.0 | 0.00 | 0.11 | 0.11 | 97 | 1004.5 |
| 20260507030007 | 55 | 188 | 6.0 | 11.0 | 0.00 | 0.11 | 0.11 | 97 | 1004.2 |
| 20260507024503 | 55 | 185 | 5.0 | 14.0 | 0.00 | 0.11 | 0.11 | 97 | 1004.5 |
| 20260507023107 | 55 | 195 | 6.0 | 15.0 | 0.00 | 0.11 | 0.11 | 97 | 1004.9 |
| 20260507021602 | 56 | 186 | 5.0 | 12.0 | 0.00 | 0.11 | 0.11 | 96 | 1004.9 |
| 20260507020100 | 56 | 205 | 6.0 | 10.0 | 0.00 | 0.11 | 0.11 | 96 | 1005.1 |
| 20260507014603 | 57 | 194 | 7.0 | 21.0 | 0.00 | 0.11 | 0.11 | 96 | 1005.1 |
| 20260507013054 | 57 | 360 | 6.0 | 17.0 | 0.01 | 0.11 | 0.11 | 97 | 1005.3 |
| 20260507011553 | 57 | 174 | 5.0 | 15.0 | 0.01 | 0.11 | 0.11 | 97 | 1005.2 |
| 20260507010057 | 58 | 212 | 4.0 | 15.0 | 0.02 | 0.11 | 0.11 | 97 | 1005.2 |
| 20260507004552 | 57 | 229 | 5.0 | 9.0 | 0.03 | 0.11 | 0.11 | 97 | 1005.2 |
| 20260507003052 | 57 | 169 | 6.0 | 11.0 | 0.05 | 0.10 | 0.10 | 97 | 1005.1 |
| 20260507001554 | 57 | 160 | 4.0 | 9.0 | 0.07 | 0.10 | 0.10 | 97 | 1005.1 |
| 20260507000049 | 56 | 360 | 4.0 | 10.0 | 0.08 | 0.09 | 0.09 | 96 | 1005.0 |
| 20260506234549 | 56 | 360 | 4.0 | 10.0 | 0.07 | 0.07 | 0.07 | 95 | 1004.9 |
| 20260506233055 | 57 | 188 | 4.0 | 19.0 | 0.05 | 0.05 | 0.05 | 95 | 1005.0 |
| 20260506231543 | 57 | 194 | 5.0 | 13.0 | 0.03 | 0.03 | 0.03 | 94 | 1005.4 |
| 20260506230040 | 58 | 175 | 4.0 | 11.0 | 0.01 | 0.01 | 0.01 | 93 | 1005.7 |
| 20260506224539 | 58 | 213 | 5.0 | 18.0 | 0.00 | 0.00 | 0.00 | 91 | 1005.7 |
| 20260506223038 | 59 | 360 | 6.0 | 14.0 | 0.00 | 0.00 | 0.00 | 88 | 1005.7 |
| 20260506221538 | 61 | 187 | 5.0 | 16.0 | 0.00 | 0.00 | 0.00 | 84 | 1005.7 |
| 20260506220038 | 61 | 175 | 5.0 | 12.0 | 0.00 | 0.00 | 0.00 | 82 | 1005.4 |
| 20260506214536 | 61 | 360 | 4.0 | 15.0 | 0.00 | 0.00 | 0.00 | 82 | 1005.7 |
| 20260506213035 | 61 | 180 | 4.0 | 20.0 | 0.00 | 0.00 | 0.00 | 82 | 1006.0 |
| 20260506211535 | 61 | 188 | 8.0 | 18.0 | 0.00 | 0.00 | 0.00 | 81 | 1006.1 |
| 20260506210033 | 62 | 184 | 5.0 | 11.0 | 0.00 | 0.00 | 0.00 | 80 | 1006.0 |
| 20260506204531 | 62 | 360 | 5.0 | 13.0 | 0.00 | 0.00 | 0.00 | 79 | 1006.1 |
| 20260506203030 | 62 | 171 | 6.0 | 16.0 | 0.00 | 0.00 | 0.00 | 79 | 1006.4 |
| 20260506201531 | 63 | 175 | 4.0 | 15.0 | 0.00 | 0.00 | 0.00 | 78 | 1006.4 |
| 20260506200029 | 62 | 159 | 5.0 | 21.0 | 0.00 | 0.00 | 0.00 | 78 | 1006.6 |
| 20260506194527 | 62 | 190 | 6.0 | 12.0 | 0.00 | 0.00 | 0.00 | 78 | 1006.9 |
| 20260506193028 | 62 | 174 | 5.0 | 18.0 | 0.00 | 0.00 | 0.00 | 78 | 1007.0 |
| 20260506191526 | 63 | 172 | 4.0 | 21.0 | 0.00 | 0.00 | 0.00 | 77 | 1007.1 |
| 20260506190025 | 64 | 203 | 6.0 | 17.0 | 0.00 | 0.00 | 0.00 | 76 | 1007.1 |
| 20260506184523 | 64 | 193 | 7.0 | 19.0 | 0.00 | 0.00 | 0.00 | 74 | 1007.3 |
| 20260506183022 | 64 | 360 | 7.0 | 22.0 | 0.00 | 0.00 | 0.00 | 75 | 1007.5 |
| 20260506181521 | 65 | 203 | 6.0 | 28.0 | 0.00 | 0.00 | 0.00 | 74 | 1007.8 |
| 20260506180019 | 67 | 163 | 7.0 | 14.0 | 0.00 | 0.00 | 0.00 | 70 | 1008.3 |
| 20260506174517 | 69 | 188 | 6.0 | 12.0 | 0.00 | 0.00 | 0.00 | 70 | 1008.2 |
| 20260506173016 | 67 | 175 | 8.0 | 22.0 | 0.00 | 0.00 | 0.00 | 71 | 1008.1 |
| 20260506171513 | 66 | 200 | 6.0 | 18.0 | 0.00 | 0.00 | 0.00 | 73 | 1008.4 |
| 20260506170011 | 66 | 360 | 6.0 | 18.0 | 0.00 | 0.00 | 0.00 | 73 | 1008.5 |
| 20260506164510 | 66 | 211 | 5.0 | 23.0 | 0.00 | 0.00 | 0.00 | 74 | 1008.8 |
| 20260506163021 | 67 | 190 | 7.0 | 18.0 | 0.00 | 0.00 | 0.00 | 72 | 1009.0 |
| 20260506161508 | 67 | 140 | 7.0 | 26.0 | 0.00 | 0.00 | 0.00 | 72 | 1009.0 |
| 20260506160015 | 66 | 186 | 8.0 | 21.0 | 0.00 | 0.00 | 0.00 | 73 | 1009.2 |
| 20260506154504 | 67 | 155 | 9.0 | 23.0 | 0.00 | 0.00 | 0.00 | 71 | 1009.7 |
| 20260506153003 | 67 | 170 | 9.0 | 20.0 | 0.00 | 0.00 | 0.00 | 72 | 1009.6 |
| 20260506151503 | 67 | 189 | 6.0 | 19.0 | 0.00 | 0.00 | 0.00 | 71 | 1009.7 |
| 20260506150002 | 65 | 243 | 8.0 | 19.0 | 0.00 | 0.00 | 0.00 | 74 | 1009.7 |
| 20260506144600 | 66 | 176 | 7.0 | 17.0 | 0.00 | 0.00 | 0.00 | 74 | 1009.8 |
| 20260506143108 | 66 | 157 | 4.0 | 14.0 | 0.00 | 0.00 | 0.00 | 73 | 1009.4 |
| 20260506141559 | 67 | 209 | 6.0 | 22.0 | 0.00 | 0.00 | 0.00 | 73 | 1009.7 |